Time,TemperatureF,DewpointF,PressureIn,WindDirection,WindDirectionDegrees,WindSpeedMPH,WindSpeedGustMPH,Humidity,HourlyPrecipIn,Conditions,Clouds,dailyrainin,SolarRadiationWatts/m^2,SoftwareType,DateUTC
2013-09-28 00:02:00,63.0,29.0,-100.00,West,275,7.0,11.0,27,0.00,,,0.00,0.000000,,2013-09-28 07:02:00,
2013-09-28 00:22:00,63.0,29.0,-100.00,West,275,7.0,11.0,27,0.00,,,0.00,0.000000,,2013-09-28 07:22:00,
2013-09-28 01:53:00,62.0,28.0,-100.00,West,266,7.0,9.0,27,0.00,,,0.00,0.000000,,2013-09-28 08:53:00,
2013-09-28 02:01:00,62.0,28.0,-100.00,West,266,7.0,9.0,27,0.00,,,0.00,0.000000,,2013-09-28 09:01:00,
2013-09-28 02:11:00,62.0,28.0,-100.00,West,266,7.0,9.0,27,0.00,,,0.00,0.000000,,2013-09-28 09:11:00,
2013-09-28 02:22:00,62.0,28.0,-100.00,West,266,7.0,9.0,27,0.00,,,0.00,0.000000,,2013-09-28 09:22:00,
2013-09-28 07:52:00,64.0,28.0,-100.00,South,185,5.0,6.0,26,0.00,,,0.00,8.000000,,2013-09-28 14:52:00,
2013-09-28 08:02:00,64.0,28.0,-100.00,South,185,5.0,6.0,26,0.00,,,0.00,8.000000,,2013-09-28 15:02:00,
2013-09-28 09:14:00,69.0,33.0,-100.00,SSE,166,5.0,7.0,26,-99.99,,,0.00,137.000000,,2013-09-28 16:14:00,
2013-09-28 10:23:00,71.0,31.0,-100.00,South,183,7.0,10.0,23,0.00,,,0.00,313.000000,,2013-09-28 17:23:00,
2013-09-28 10:52:00,74.0,32.0,-100.00,South,176,5.0,10.0,21,0.00,,,0.00,500.000000,,2013-09-28 17:52:00,
2013-09-28 11:02:00,74.0,32.0,-100.00,South,176,5.0,10.0,21,0.00,,,0.00,500.000000,,2013-09-28 18:02:00,
2013-09-28 11:12:00,74.0,32.0,-100.00,South,176,5.0,10.0,21,0.00,,,0.00,500.000000,,2013-09-28 18:12:00,
2013-09-28 11:22:00,74.0,32.0,-100.00,South,176,5.0,10.0,21,0.00,,,0.00,500.000000,,2013-09-28 18:22:00,
2013-09-28 11:52:00,74.0,34.0,-100.00,NNE,30,4.0,9.0,23,0.00,,,0.00,639.000000,,2013-09-28 18:52:00,
2013-09-28 12:02:00,74.0,34.0,-100.00,NNE,30,4.0,9.0,23,0.00,,,0.00,639.000000,,2013-09-28 19:02:00,
2013-09-28 12:11:00,74.0,34.0,-100.00,NNE,30,4.0,9.0,23,0.00,,,0.00,639.000000,,2013-09-28 19:11:00,
2013-09-28 12:21:00,74.0,34.0,-100.00,NNE,30,4.0,9.0,23,0.00,,,0.00,639.000000,,2013-09-28 19:21:00,
2013-09-28 12:52:00,80.0,35.0,-100.00,WSW,238,4.0,10.0,20,0.00,,,-99.99,733.000000,,2013-09-28 19:52:00,
2013-09-28 13:02:00,80.0,35.0,-100.00,WSW,238,4.0,10.0,20,0.00,,,-99.99,733.000000,,2013-09-28 20:02:00,
2013-09-28 13:12:00,80.0,35.0,-100.00,WSW,238,4.0,10.0,20,0.00,,,-99.99,733.000000,,2013-09-28 20:12:00,
2013-09-28 13:22:00,80.0,35.0,-100.00,WSW,238,4.0,10.0,20,0.00,,,-99.99,733.000000,,2013-09-28 20:22:00,
2013-09-28 13:52:00,80.0,33.0,-100.00,WSW,241,8.0,14.0,18,0.00,,,0.00,761.000000,,2013-09-28 20:52:00,
2013-09-28 14:02:00,80.0,33.0,-100.00,WSW,241,8.0,14.0,18,0.00,,,0.00,761.000000,,2013-09-28 21:02:00,
2013-09-28 14:12:00,80.0,33.0,-100.00,WSW,241,8.0,14.0,18,0.00,,,0.00,761.000000,,2013-09-28 21:12:00,
2013-09-28 14:22:00,80.0,33.0,-100.00,WSW,241,8.0,14.0,18,0.00,,,0.00,761.000000,,2013-09-28 21:22:00,
2013-09-28 14:55:00,81.0,33.0,-100.00,West,268,8.0,13.0,18,0.00,,,0.00,730.000000,,2013-09-28 21:55:00,
2013-09-28 15:04:00,81.0,33.0,-100.00,West,268,8.0,13.0,18,0.00,,,0.00,730.000000,,2013-09-28 22:04:00,
2013-09-28 15:13:00,81.0,33.0,-100.00,West,268,8.0,13.0,18,0.00,,,0.00,730.000000,,2013-09-28 22:13:00,
2013-09-28 15:23:00,81.0,33.0,-100.00,West,268,8.0,13.0,18,0.00,,,0.00,730.000000,,2013-09-28 22:23:00,
2013-09-28 15:54:00,81.0,33.0,-100.00,WSW,246,8.0,15.0,18,0.00,,,0.00,641.000000,,2013-09-28 22:54:00,
2013-09-28 16:03:00,81.0,33.0,-100.00,WSW,246,8.0,15.0,18,0.00,,,0.00,641.000000,,2013-09-28 23:03:00,
2013-09-28 16:12:00,81.0,33.0,-100.00,WSW,246,8.0,15.0,18,0.00,,,0.00,641.000000,,2013-09-28 23:12:00,
2013-09-28 16:22:00,81.0,33.0,-100.00,WSW,246,8.0,15.0,18,0.00,,,0.00,641.000000,,2013-09-28 23:22:00,
2013-09-28 16:52:00,81.0,32.0,-100.00,WSW,257,9.0,15.0,17,0.00,,,0.00,499.000000,,2013-09-28 23:52:00,
2013-09-28 17:01:00,81.0,32.0,-100.00,WSW,257,9.0,15.0,17,0.00,,,0.00,499.000000,,2013-09-29 00:01:00,
2013-09-28 17:11:00,81.0,32.0,-100.00,WSW,257,9.0,15.0,17,0.00,,,0.00,499.000000,,2013-09-29 00:11:00,
2013-09-28 17:22:00,81.0,32.0,-100.00,WSW,257,9.0,15.0,17,0.00,,,0.00,499.000000,,2013-09-29 00:22:00,
2013-09-28 17:52:00,75.0,29.0,-100.00,WSW,249,13.0,16.0,18,0.00,,,0.00,329.000000,,2013-09-29 00:52:00,
2013-09-28 18:02:00,75.0,29.0,-100.00,WSW,249,13.0,16.0,18,0.00,,,0.00,329.000000,,2013-09-29 01:02:00,
2013-09-28 18:12:00,75.0,29.0,-100.00,WSW,249,13.0,16.0,18,0.00,,,0.00,329.000000,,2013-09-29 01:12:00,
2013-09-28 18:21:00,75.0,29.0,-100.00,WSW,249,13.0,16.0,18,0.00,,,0.00,329.000000,,2013-09-29 01:21:00,
2013-09-28 18:52:00,69.0,29.0,-100.00,WSW,250,13.0,16.0,22,0.00,,,0.00,94.000000,,2013-09-29 01:52:00,
2013-09-28 19:03:00,69.0,29.0,-100.00,WSW,250,13.0,16.0,22,0.00,,,0.00,94.000000,,2013-09-29 02:03:00,
2013-09-28 19:12:00,69.0,29.0,-100.00,WSW,250,13.0,16.0,22,0.00,,,0.00,94.000000,,2013-09-29 02:12:00,
2013-09-28 19:22:00,69.0,29.0,-100.00,WSW,250,13.0,16.0,22,0.00,,,0.00,94.000000,,2013-09-29 02:22:00,
2013-09-28 19:53:00,63.0,26.0,-100.00,WSW,241,11.0,18.0,24,0.00,,,0.00,7.000000,,2013-09-29 02:53:00,
2013-09-28 20:03:00,63.0,26.0,-100.00,WSW,241,11.0,18.0,24,0.00,,,0.00,7.000000,,2013-09-29 03:03:00,
2013-09-28 20:12:00,63.0,26.0,-100.00,WSW,241,11.0,18.0,24,0.00,,,0.00,7.000000,,2013-09-29 03:12:00,
2013-09-28 20:55:00,61.0,34.0,-100.00,WSW,250,12.0,16.0,36,0.00,,,0.00,0.000000,,2013-09-29 03:55:00,
2013-09-28 21:02:00,-999.0,-99.9,-100.00,WSW,250,12.0,16.0,-999,-99.99,,,-99.99,0.000000,,2013-09-29 04:02:00,
2013-09-28 21:54:00,59.0,48.0,-100.00,West,259,11.0,16.0,67,0.00,,,-99.99,0.000000,,2013-09-29 04:54:00,
2013-09-28 22:03:00,59.0,48.0,-100.00,West,259,11.0,16.0,67,0.00,,,-99.99,0.000000,,2013-09-29 05:03:00,
2013-09-28 22:13:00,59.0,48.0,-100.00,West,259,11.0,16.0,67,0.00,,,-99.99,0.000000,,2013-09-29 05:13:00,
2013-09-28 22:22:00,59.0,48.0,-100.00,West,259,11.0,16.0,67,0.00,,,-99.99,0.000000,,2013-09-29 05:22:00,
2013-09-28 22:53:00,59.0,50.0,-100.00,WSW,252,11.0,16.0,71,0.00,,,0.00,0.000000,,2013-09-29 05:53:00,
2013-09-28 23:03:00,59.0,50.0,-100.00,WSW,252,11.0,16.0,71,0.00,,,0.00,0.000000,,2013-09-29 06:03:00,
2013-09-28 23:12:00,59.0,50.0,-100.00,WSW,252,11.0,16.0,71,0.00,,,0.00,0.000000,,2013-09-29 06:12:00,
2013-09-28 23:22:00,59.0,50.0,-100.00,WSW,252,11.0,16.0,71,0.00,,,0.00,0.000000,,2013-09-29 06:22:00,
2013-09-28 23:52:00,59.0,47.0,-100.00,WSW,246,13.0,20.0,64,0.00,,,0.00,0.000000,,2013-09-29 06:52:00,